Weather History for Lewisburg, WV

Change the Weather History Date:

Tuesday, January 1, 2013

  Actual Average Record
Temperature  
Mean Temperature 32 °F 29 °F  
Max Temperature 33 °F 38 °F 63 °F (1985)
Min Temperature 30 °F 19 °F 4 °F (1977)
Degree Days  
Heating Degree Days 34    
Month to date heating degree days  
Since 1 July heating degree days  
Cooling Degree Days 0    
Month to date cooling degree days  
Year to date cooling degree days  
Moisture  
Dew Point 27 °F    
Average Humidity 85    
Maximum Humidity 100    
Minimum Humidity 52    
Precipitation  
Precipitation 0.00 in - 0.07 in (2012)
Snow  
Snow 0.00 in - - ()
Month to date snowfall  
Since 1 July snowfall  
Snow Depth -    
Sea Level Pressure  
Sea Level Pressure 29.98 in    
Wind  
Wind Speed 5 mph (WSW)    
Max Wind Speed 10 mph    
Max Gust Speed -    
Visibility 8 miles    
Events Snow    
T = Trace of Precipitation, MM = Missing Value Source: NWS Daily Summary

Daily Weather History Graph

Daily Weather History Graph

Search for Another Location

Airport:

Trip Planner

Search our weather history database for the weather conditions in past years. The results will help you decide how hot, cold, wet, or windy it might be!

Date:

Astronomy

Jan. 01, 2013 Rise Set
Actual Time 7:37 AM EST 5:13 PM EST
Civil Twilight 7:08 AM EST 5:42 PM EST
Nautical Twilight 6:35 AM EST 6:15 PM EST
Astronomical Twilight 6:03 AM EST 6:47 PM EST
Moon 9:37 PM EST (1/1) 9:53 AM EST (1/1)
Length of Visible Light 10h 34m
Length of Day
9h 36m
Waning Gibbous, 83% of the Moon is Illuminated
Jan 1
Waning Gibbous
Jan 4
Last Quarter
Jan 11
New
Jan 18
First Quarter
Jan 26
Full

Hourly Weather History & Observations

Time (EST) Temp. Windchill Dew Point Humidity Pressure Visibility Wind Dir Wind Speed Gust Speed Precip Events Conditions
12:15 AM 32.0 °F 26.4 °F 17.6 °F 55% 30.05 in 10.0 mi WSW 5.8 mph - N/A   Overcast
12:35 AM 33.8 °F 27.7 °F 17.6 °F 52% 30.06 in 10.0 mi WSW 6.9 mph - N/A   Overcast
12:55 AM 33.8 °F 29.6 °F 17.6 °F 52% 30.05 in 10.0 mi WSW 4.6 mph - N/A   Overcast
1:15 AM 32.0 °F 25.6 °F 17.6 °F 55% 30.04 in 10.0 mi West 6.9 mph - N/A   Overcast
1:35 AM 32.0 °F 28.7 °F 17.6 °F 55% 30.04 in 10.0 mi West 3.5 mph - N/A   Overcast
1:55 AM 32.0 °F 28.7 °F 19.4 °F 60% 30.04 in 10.0 mi WNW 3.5 mph - N/A   Light Drizzle
2:15 AM 32.0 °F 25.6 °F 19.4 °F 60% 30.04 in 10.0 mi WNW 6.9 mph - N/A   Overcast
2:35 AM 32.0 °F 24.8 °F 21.2 °F 64% 30.06 in 10.0 mi West 8.1 mph - N/A   Overcast
2:55 AM 32.0 °F 25.6 °F 21.2 °F 64% 30.06 in 10.0 mi WSW 6.9 mph - N/A   Overcast
3:15 AM 32.0 °F 24.8 °F 21.2 °F 64% 30.05 in 10.0 mi West 8.1 mph - N/A   Overcast
3:35 AM 32.0 °F 27.5 °F 23.0 °F 69% 30.04 in 10.0 mi West 4.6 mph - N/A   Overcast
4:15 AM 30.2 °F - 23.0 °F 75% 30.03 in 7.0 mi Calm Calm - N/A Snow Light Snow
4:35 AM 30.2 °F - 24.8 °F 80% 30.03 in 10.0 mi Calm Calm - N/A Snow Light Snow
4:55 AM 30.2 °F 25.4 °F 24.8 °F 80% 30.01 in 7.0 mi WSW 4.6 mph - N/A Snow Light Snow
5:15 AM 30.2 °F 25.4 °F 26.6 °F 86% 30.00 in 7.0 mi SW 4.6 mph - N/A Snow Light Snow
5:35 AM 30.2 °F 25.4 °F 26.6 °F 86% 30.00 in 10.0 mi SW 4.6 mph - N/A   Overcast
5:55 AM 30.2 °F 24.3 °F 26.6 °F 86% 30.00 in 10.0 mi SW 5.8 mph - N/A   Overcast
6:15 AM 30.2 °F 24.3 °F 26.6 °F 86% 29.99 in 10.0 mi SW 5.8 mph - N/A   Overcast
6:35 AM 30.2 °F 24.3 °F 26.6 °F 86% 29.99 in 10.0 mi SW 5.8 mph - N/A   Overcast
6:55 AM 30.2 °F 26.7 °F 28.4 °F 93% 29.99 in 10.0 mi WSW 3.5 mph - N/A   Overcast
7:15 AM 30.2 °F - 28.4 °F 93% 29.99 in 5.0 mi Calm Calm - N/A   Overcast
7:35 AM 30.2 °F 26.7 °F 28.4 °F 93% 29.98 in 3.0 mi SW 3.5 mph - N/A   Overcast
7:55 AM 30.2 °F 25.4 °F 28.4 °F 93% 29.99 in 4.0 mi SW 4.6 mph - N/A   Overcast
8:15 AM 30.2 °F 26.7 °F 28.4 °F 93% 30.00 in 1.8 mi WSW 3.5 mph - N/A   Overcast
8:35 AM 30.2 °F 26.7 °F 28.4 °F 93% 29.98 in 2.0 mi SW 3.5 mph - N/A   Overcast
8:55 AM 30.2 °F 26.7 °F 28.4 °F 93% 30.00 in 2.0 mi WSW 3.5 mph - N/A   Overcast
9:15 AM 30.2 °F 26.7 °F 28.4 °F 93% 29.97 in 1.5 mi South 3.5 mph - N/A   Overcast
9:35 AM 30.2 °F - 28.4 °F 93% 30.01 in 2.0 mi Calm Calm - N/A   Overcast
10:15 AM 32.0 °F - 30.2 °F 93% 30.00 in 1.8 mi Calm Calm - N/A   Overcast
10:35 AM 32.0 °F - 30.2 °F 93% 30.00 in 3.0 mi Calm Calm - N/A   Overcast
10:55 AM 32.0 °F - 30.2 °F 93% 29.99 in 3.0 mi Calm Calm - N/A   Overcast
11:15 AM 32.0 °F 27.5 °F 32.0 °F 100% 29.99 in 5.0 mi NW 4.6 mph - N/A   Overcast
11:35 AM 32.0 °F 26.4 °F 30.2 °F 93% 29.97 in 10.0 mi WSW 5.8 mph - N/A   Overcast
11:55 AM 32.0 °F 28.7 °F 30.2 °F 93% 29.97 in 10.0 mi WNW 3.5 mph - N/A   Overcast
12:15 PM 32.0 °F 27.5 °F 30.2 °F 93% 29.96 in 5.0 mi West 4.6 mph - N/A   Overcast
12:35 PM 32.0 °F - 30.2 °F 93% 29.94 in 7.0 mi Calm Calm - N/A   Overcast
12:55 PM 32.0 °F 27.5 °F 30.2 °F 93% 29.94 in 10.0 mi West 4.6 mph - N/A   Overcast
1:15 PM 32.0 °F 27.5 °F 30.2 °F 93% 29.92 in 10.0 mi WSW 4.6 mph - N/A   Overcast
1:35 PM 32.0 °F 27.5 °F 30.2 °F 93% 29.92 in 10.0 mi West 4.6 mph - N/A   Overcast
1:55 PM 32.0 °F 28.7 °F 30.2 °F 93% 29.91 in 10.0 mi West 3.5 mph - N/A   Overcast
2:15 PM 32.0 °F 25.6 °F 30.2 °F 93% 29.92 in 10.0 mi West 6.9 mph - N/A   Overcast
2:35 PM 32.0 °F 28.7 °F 30.2 °F 93% 29.92 in 10.0 mi West 3.5 mph - N/A   Overcast
3:15 PM 32.0 °F 25.6 °F 30.2 °F 93% 29.94 in 10.0 mi West 6.9 mph - N/A   Overcast
3:35 PM 32.0 °F 26.4 °F 30.2 °F 93% 29.94 in 10.0 mi West 5.8 mph - N/A   Overcast
4:15 PM 32.0 °F 24.8 °F 28.4 °F 87% 29.96 in 10.0 mi West 8.1 mph - N/A   Overcast
4:35 PM 32.0 °F 23.6 °F 28.4 °F 87% 29.96 in 10.0 mi West 10.4 mph - N/A   Overcast
4:55 PM 32.0 °F 25.6 °F 28.4 °F 87% 29.96 in 10.0 mi West 6.9 mph - N/A   Overcast
5:15 PM 32.0 °F 25.6 °F 28.4 °F 87% 29.96 in 10.0 mi West 6.9 mph - N/A   Overcast
5:35 PM 32.0 °F 25.6 °F 28.4 °F 87% 29.96 in 10.0 mi West 6.9 mph - N/A   Overcast
5:55 PM 32.0 °F 26.4 °F 28.4 °F 87% 29.96 in 10.0 mi WSW 5.8 mph - N/A   Overcast
6:15 PM 32.0 °F 27.5 °F 28.4 °F 87% 29.97 in 10.0 mi WSW 4.6 mph - N/A   Overcast
6:35 PM 32.0 °F 28.7 °F 28.4 °F 87% 29.96 in 10.0 mi West 3.5 mph - N/A   Overcast
6:55 PM 32.0 °F 25.6 °F 28.4 °F 87% 29.96 in 10.0 mi West 6.9 mph - N/A   Overcast
7:15 PM 30.2 °F 23.4 °F 28.4 °F 93% 29.96 in 10.0 mi West 6.9 mph - N/A   Overcast
7:35 PM 30.2 °F 26.7 °F 28.4 °F 93% 29.97 in 10.0 mi West 3.5 mph - N/A   Overcast
7:55 PM 30.2 °F 25.4 °F 28.4 °F 93% 29.97 in 10.0 mi WSW 4.6 mph - N/A   Overcast
8:15 PM 30.2 °F 25.4 °F 28.4 °F 93% 29.97 in 10.0 mi WSW 4.6 mph - N/A   Overcast
8:35 PM 30.2 °F 26.7 °F 28.4 °F 93% 29.98 in 10.0 mi WNW 3.5 mph - N/A   Overcast
8:55 PM 30.2 °F 25.4 °F 26.6 °F 86% 29.97 in 10.0 mi West 4.6 mph - N/A   Overcast
9:15 PM 30.2 °F 25.4 °F 26.6 °F 86% 29.98 in 10.0 mi WSW 4.6 mph - N/A   Overcast
9:35 PM 30.2 °F 24.3 °F 26.6 °F 86% 29.98 in 10.0 mi WSW 5.8 mph - N/A   Overcast
9:55 PM 30.2 °F 25.4 °F 26.6 °F 86% 29.97 in 10.0 mi West 4.6 mph - N/A   Overcast
10:15 PM 30.2 °F 26.7 °F 26.6 °F 86% 29.97 in 10.0 mi WSW 3.5 mph - N/A   Overcast
10:35 PM 30.2 °F 24.3 °F 26.6 °F 86% 29.96 in 10.0 mi SW 5.8 mph - N/A   Overcast
10:55 PM 30.2 °F 26.7 °F 26.6 °F 86% 29.96 in 10.0 mi SW 3.5 mph - N/A   Overcast
11:15 PM 30.2 °F 24.3 °F 28.4 °F 93% 29.97 in 10.0 mi WSW 5.8 mph - N/A   Overcast
11:35 PM 30.2 °F 26.7 °F 28.4 °F 93% 29.97 in 10.0 mi West 3.5 mph - N/A   Overcast
11:55 PM 30.2 °F - 26.6 °F 86% 29.97 in 10.0 mi Calm Calm - N/A Snow Light Snow